SCP
0 0 0 0 0 0 0 0 0 0 0 0 0 0 0 0 0 0 0 0 0 0 0 0 0 0 0 0 0 0 0 0 0 0 0 0 0 0 0 0 0 0 0
0 0 0 0 0 0 0 0 0 0 0 0 0 0 0 0 0 0 0 0 0 0 0 0 0 0 0 0 0 0 0 0 0 0 0 0 0 0 0 0 0 0 0
0 0 0 0 0 0 0 0 0 0 0 0 0 0 0 0 0 0 0 0 0 0 0 0 0 0 0 0 0 0 0 0 0 0 0 0 0 0 0 0 0 0 0
0 0 0 0 0 0 0 0 0 0 0 0 0 0 0 0 0 0 0 0 0 0 0 0 0 0 0 0 0 0 0 0 0 0 0 0 0 0 0 0 0 0 0
0 0 0 0 0 0 0 0 0 0 0 0 0 0 0 0 0 0 0 0 0 0 0 0 0 0 0 0 0 0 0 0 0 0 0 0 0 0 0 0 0 0 0
0 0 0 0 0 0 0 0 0 0 0 0 0 0 0 0 0 0 0 0 0 0 0 0 0 0 0 0 0 0 0 0 0 0 0 0 0 0 0 0 0 0 0
0 0 0 0 0 0 0 0 0 0 0 0 0 0 0 0 0 0 0 0 0 0 0 0 0 0 0 0 0 0 0 0 0 0 0 0 0 0 0 0 0 0 0
0 0 0 0 0 0 0 0 0 0 0 0 0 0 0 0 0 0 0 0 0 0 0 0 0 0 0 0 0 0 0 0 0 0 0 0 0 0 0 0 0 0 0
0 0 0 0 0 0 0 0 0 0 0 0 0 0 0 0 0 0 0 0 0 0 0 0 0 0 0 0 0 0 0 0 0 0 0 0 0 0 0 0 0 0 0
0 0 0 0 0 0 0 0 0 0 0 0 0 0 0 0 0 0 0 0 0 0 0 0 0 0 0 0 0 0 0 0 0 0 0 0 0 0 0 0 0 0 0
0 0 0 0 0 0 0 0 0 0 0 0 0 0 0 0 0 0 0 0 0 0 0 0 0 0 0 0 0 0 0 0 0 0 0 0 0 0 0 0 0 0 0
0 0 0 0 0 0 0 0 0 0 0 0 0 0 0 0 0 0 0 0 0 0 0 0 0 0 0 0 0 0 0 0 0 0 0 0 0 0 0 0 0 0 0
0 0 0 0 0 0 0 0 0 0 0 0 0 0 0 0 0 0 0 0 0 0 0 0 0 0 0 0 0 0 0 0 0 0 0 0 0 0 0 0 0 0 0
0 0 0 0 0 0 0 0 0 0 0 0 0 0 0 0 0 0 0 0 0 0 0 0 0 0 0 0 0 0 0 0 0 0 0 0 0 0 0 0 0 0 0
0 0 0 0 0 0 0 0 0 0 0 0 0 0 0 0 0 0 0 0 0 0 0 0 0 0 0 0 0 0 0 0 0 0 0 0 0 0 0 0 0 0 0
0 0 0 0 0 0 0 0 0 0 0 0 0 0 0 0 0 0 0 0 0 0 0 0 0 0 0 0 0 0 0 0 0 0 0 0 0 0 0 0 0 0 0
0 0 0 0 0 0 0 0 0 0 0 0 0 0 0 0 0 0 0 0 0 0 0 0 0 0 0 0 0 0 0 0 0 0 0 0 0 0 0 0 0 0 0
0 0 0 0 0 0 0 0 0 0 0 0 0 0 0 0 0 0 0 0 0 0 0 0 0 0 0 0 0 0 0 0 0 0 0 0 0 0 0 0 0 0 0
0 0 0 0 0 0 0 0 0 0 0 0 0 0 0 0 0 0 0 0 0 0 0 0 0 0 0 0 0 0 0 0 0 0 0 0 0 0 0 0 0 0 0
0 0 0 0 0 0 0 0 0 0 0 0 0 0 0 0 0 0 0 0 0 0 0 0 0 0 0 0 0 0 0 0 0 0 0 0 0 0 0 0 0 0 0
0 0 0 0 0 0 0 0 0 0 0 0 0 0 0 0 0 0 0 0 0 0 0 0 0 0 0 0 0 0 0 0 0 0 0 0 0 0 0 0 0 0 0
0 0 0 0 0 0 0 0 0 0 0 0 0 0 0 0 0 0 0 0 0 0 0 0 0 0 0 0 0 0 0 0 0 0 0 0 0 0 0 0 0 0 0
0 0 0 0 0 0 0 0 0 0 0 0 0 0 0 0 0 0 0 0 0 0 0 0 0 0 0 0 0 0 0 0 0 0 0 0 0 0 0 0 0 0 0
0 0 0 0 0 0 0 0 0 0 0 0 0 0 0 0 0 0 0 0 0 0 0 0 0 0 0 0 0 0 0 0 0 0 0 0 0 0 0 0 0 0 0
0 0 0 0 0 0 0 0 0 0 0 0 0 0 0 0 0 0 0 0 0 0 0 0 0 0 0 0 0 0 0 0 0 0 0 0 0 0 0 0 0 0 0
0 0 0 0 0 0 0 0 0 0 0 0 0 0 0 0 0 0 0 0 0 0 0 0 0 0 0 0 0 0 0 0 0 0 0 0 0 0 0 0 0 0 0
Wind_Speed
5 6 7 7 6 6 6 6 6 5 5 3 3 2 2 2 2 2 3 3 3 3 3 3 3 3 3 3 3 2 3 3 2 2 2 2 1 2 2 2 3 4 4
5 6 7 7 7 7 7 6 6 6 5 3 3 2 2 1 1 2 3 3 3 3 3 3 3 3 3 4 4 3 2 2 3 2 1 2 2 2 2 2 2 2 3
9 8 8 8 8 8 8 7 6 6 5 5 4 4 3 2 2 2 2 3 3 3 3 3 2 2 2 2 3 3 2 2 2 2 1 1 1 3 2 2 2 2 2
8 8 9 9 9 8 7 6 6 6 5 5 5 5 3 2 1 0 1 2 2 2 3 3 2 2 2 2 2 2 1 1 1 2 2 0 1 1 3 2 2 3 3
8 9 9 9 7 7 7 6 6 6 5 5 5 5 3 2 1 1 1 1 2 2 2 2 2 2 2 2 2 2 2 1 1 1 1 1 1 1 1 3 3 3 2
7 6 5 6 5 5 6 6 6 6 5 5 5 5 5 4 3 2 1 1 1 1 2 2 2 2 2 2 2 1 1 1 0 0 0 1 1 1 1 3 4 4 3
6 6 7 7 6 7 6 6 7 6 5 5 4 4 5 5 4 3 2 1 0 1 1 2 1 2 2 2 2 1 1 1 0 1 1 1 2 2 2 3 4 4 4
5 6 7 6 6 7 7 7 7 6 6 5 4 4 4 3 2 2 2 1 1 1 1 1 1 1 1 2 1 1 1 1 1 2 2 2 2 2 2 3 3 4 4
5 5 5 5 5 6 6 7 7 6 5 5 5 4 4 3 3 2 2 1 0 0 0 1 1 1 1 1 1 1 1 1 1 2 2 2 3 2 3 3 3 3 5
3 4 4 4 4 4 4 5 5 6 5 5 4 3 3 3 3 2 2 1 1 0 0 1 1 1 1 1 1 1 1 1 2 2 2 3 3 3 3 3 3 4 4
3 3 3 4 4 4 4 4 4 4 4 4 4 4 3 3 3 2 2 1 1 0 0 1 1 1 1 1 1 1 2 2 2 2 3 4 4 3 3 3 4 4 4
3 3 4 4 4 4 4 4 4 4 4 4 4 3 3 3 3 2 2 1 1 1 1 1 1 2 2 2 2 2 3 2 3 3 3 4 4 4 4 4 5 5 5
3 3 4 3 3 3 3 3 3 3 3 3 4 3 3 3 2 2 2 1 1 1 1 1 1 2 2 2 3 3 3 3 3 4 4 5 4 5 4 5 5 5 5
3 3 3 2 2 3 2 2 2 3 3 3 3 3 3 3 2 2 2 1 1 1 1 2 2 2 3 3 3 3 3 3 4 4 5 5 5 5 6 5 6 6 6
2 2 2 2 2 2 2 2 2 2 3 3 3 2 2 2 2 1 1 1 1 1 1 2 2 3 3 3 4 4 4 4 4 4 5 5 7 8 7 6 5 5 5
2 2 2 2 2 2 2 2 2 2 2 2 2 2 2 1 1 1 1 0 1 1 1 2 3 3 3 6 8 6 4 4 4 5 5 6 7 9 12 13 12 10 7
2 2 2 2 2 1 2 2 2 2 2 2 1 1 1 1 1 1 0 1 1 1 2 2 3 3 5 9 9 9 5 4 4 4 5 5 6 8 6 10 12 11 13
2 2 2 2 2 2 2 2 2 3 2 2 1 1 1 1 0 0 0 1 1 1 2 3 3 3 5 9 9 9 4 3 4 5 5 5 5 7 8 7 7 7 8
2 2 2 2 3 2 3 3 3 3 2 2 1 0 1 1 0 0 1 1 1 1 2 3 3 3 6 9 10 9 3 3 5 5 5 6 5 10 13 8 7 8 8
3 3 3 3 3 2 3 4 3 3 1 0 0 0 1 0 0 1 1 1 1 2 3 3 3 4 5 9 10 10 3 4 5 5 5 9 9 12 13 7 6 8 8
3 4 4 3 2 2 3 4 3 1 0 0 1 1 1 0 0 1 1 1 1 2 2 3 4 4 5 8 10 11 5 4 5 5 4 5 12 14 14 11 6 9 9
3 3 4 3 2 2 3 3 1 0 1 1 1 1 1 1 1 1 1 1 1 2 3 3 4 3 5 7 8 11 10 9 5 5 5 6 13 14 14 10 11 14 11
3 3 4 3 2 2 3 2 0 1 1 2 1 1 1 1 1 1 2 2 1 2 3 3 3 4 4 5 10 11 12 12 7 6 10 12 14 13 9 11 13 10 5
2 2 3 3 2 2 2 1 0 1 2 1 0 1 1 1 2 1 2 2 2 2 3 3 4 4 4 4 4 5 6 9 8 6 8 11 12 9 9 9 7 4 4
2 2 2 2 1 1 1 1 1 1 1 0 0 1 1 2 2 2 2 3 3 4 4 3 4 4 4 7 11 8 5 4 5 5 3 3 4 4 4 4 4 4 4
2 2 2 1 1 1 2 2 1 1 1 1 1 1 1 1 2 2 3 5 6 8 9 8 7 6 9 13 13 13 13 13 11 6 3 4 4 5 5 5 5 5 5
Wind_Direction
195 172 168 163 157 157 154 152 147 148 138 129 122 107 88 70 58 52 49 42 35 32 39 36 26 24 33 22 17 24 26 20 3 15 360 351 2 34 27 27 28 23 15
182 177 170 167 169 169 166 159 158 159 153 144 133 121 119 101 80 52 44 36 33 31 42 42 30 23 32 27 23 27 24 17 18 22 6 345 336 359 4 12 23 13 7
194 183 178 178 175 175 172 168 166 161 152 138 120 106 85 71 58 48 38 27 33 36 35 38 36 32 39 30 14 23 36 23 11 29 45 35 299 313 317 355 13 3 4
194 185 182 182 181 179 169 163 160 153 148 143 141 139 139 139 159 136 62 25 34 36 34 36 34 32 27 22 4 24 21 42 8 6 22 29 267 301 314 313 354 350 346
191 188 186 181 173 164 161 158 152 148 146 148 150 142 131 128 116 88 69 35 30 32 28 28 35 29 21 13 1 3 24 40 25 352 334 343 335 289 266 294 312 323 312
186 181 166 153 152 152 153 152 150 150 146 150 148 147 147 144 138 125 109 33 22 23 23 21 27 24 15 1 347 345 10 17 29 342 310 279 279 294 280 278 289 297 297
171 166 161 162 162 160 159 156 154 156 154 154 156 158 158 159 163 164 160 143 14 360 354 7 8 7 356 345 346 346 330 310 280 256 260 262 261 262 271 277 285 291 293
164 167 168 168 167 166 162 159 162 163 159 161 163 155 154 155 159 158 152 168 213 264 303 347 359 353 345 344 347 332 318 315 291 291 278 272 271 265 260 266 278 291 290
160 163 161 160 162 164 166 165 165 163 165 167 159 154 154 152 153 149 141 161 199 273 351 355 343 334 340 333 329 313 306 299 295 289 283 270 268 266 264 262 256 258 280
146 150 151 152 154 157 152 152 160 164 166 163 163 159 156 156 151 143 153 166 184 230 263 303 303 314 329 320 318 307 298 311 305 294 292 286 276 266 263 263 261 252 253
149 145 142 137 135 133 140 147 152 153 156 162 158 151 152 149 145 156 173 180 194 213 244 269 280 292 298 294 295 299 296 296 302 297 292 290 283 275 265 261 258 257 251
133 132 128 120 121 130 137 148 153 156 166 164 155 156 150 147 154 168 177 175 199 237 258 261 271 282 288 284 280 284 292 281 284 288 288 290 290 283 276 266 259 257 253
115 114 115 121 129 131 134 148 152 155 156 153 152 153 154 162 175 181 181 185 202 245 280 281 273 281 285 282 275 266 270 266 267 272 275 279 283 286 281 275 269 264 264
113 115 118 130 137 132 135 141 147 146 145 147 155 166 176 183 187 182 179 193 206 224 254 275 276 279 284 283 275 272 270 267 268 270 271 272 270 274 279 279 272 269 267
119 129 136 141 134 126 127 133 136 139 145 149 159 177 176 171 167 168 176 198 233 256 261 278 287 285 278 272 272 268 270 271 277 278 276 278 281 281 282 282 280 277 270
159 141 135 131 137 144 146 133 130 133 133 146 160 154 143 150 164 177 170 199 266 278 275 273 280 287 289 295 294 293 280 277 280 285 288 287 288 289 293 294 293 290 285
167 157 156 151 143 145 146 144 138 122 122 129 129 135 140 150 176 187 155 249 271 281 284 283 281 282 287 297 299 298 297 283 280 282 289 293 295 300 296 293 295 294 290
164 156 141 127 109 104 106 104 102 108 113 107 99 117 128 132 150 162 211 272 276 283 285 289 287 288 294 305 307 306 300 284 276 274 275 279 286 287 291 287 288 284 285
150 143 133 125 109 102 105 102 92 91 94 95 89 71 129 140 166 247 276 284 292 297 292 292 290 294 300 308 309 309 295 286 281 277 278 282 278 288 295 294 289 291 290
103 106 101 98 97 94 105 105 100 92 87 78 54 41 56 87 239 259 280 299 291 288 298 304 300 290 291 304 310 308 292 287 288 285 283 287 291 294 296 291 285 288 290
101 103 103 99 98 101 107 104 100 107 140 68 55 48 40 8 285 322 326 316 309 311 303 300 301 293 294 304 310 310 303 290 290 290 289 288 296 298 298 299 291 292 299
93 100 100 88 74 89 108 104 100 89 80 76 63 38 13 353 7 359 325 323 312 312 305 303 304 297 296 304 306 308 307 304 294 291 289 289 297 300 302 304 302 304 309
95 96 104 90 61 69 107 121 136 72 92 82 57 13 360 356 349 324 308 317 312 296 297 295 295 299 299 302 310 309 308 307 302 292 294 299 304 308 309 307 310 313 312
91 89 93 88 54 44 68 118 64 81 98 96 17 349 346 335 330 314 298 290 284 282 284 284 289 295 298 295 295 292 299 304 302 300 303 308 310 309 310 312 312 307 297
75 85 92 92 52 31 31 24 46 87 95 77 313 319 312 300 303 300 278 277 257 261 282 277 279 290 291 299 308 310 304 298 293 310 312 310 309 306 303 302 300 299 300
75 70 71 62 20 13 353 347 2 110 148 277 295 289 286 288 291 293 301 299 296 302 302 302 301 298 300 307 310 311 311 312 312 312 301 297 293 292 294 295 296 294 293